Regional Weather Roundup
Issued by NWS Sterling, VA

Home | Current Version | Previous Version | Text Only | Print | Product List | Glossary Off
Versions: 1 2 3 4 5 6 7 8 9 10 11 12 13 14 15 16 17 18 19 20 21 22 23 24 25 26 27 28 29 30 31 32 33 34 35 36 37 38 39 40 41 42 43 44 45 46 47 48 49 50

990
ASUS41 KLWX 242111
RWRLWX

REGIONAL WEATHER ROUNDUP
NATIONAL WEATHER SERVICE BALTIMORE MD/WASHINGTON DC
500 PM EDT THU MAY 24 2018

Note: "FAIR" indicates few or no clouds below 12,000 feet
with no significant weather and/or obstructions to visibility.
 TC=TEMPERATURE CELSIUS

 * =Non NWS site. Station does not report precipitation (e.g. rain,
    snow, etc.), thunder, or fog.

DCZ001-MDZ009-015-VAZ040>042-051-053>054-242200-
WASHINGTON METRO

CITY           SKY/WX    TMP DP  RH WIND       PRES   REMARKS
WASHINGTON NAT FAIR      86  41  20 E3        30.13F
DULLES         FAIR      83  46  27 VRB3      30.14F
ANDREWS AFB    FAIR      82  46  28 CALM      30.13F
FT BELVOIR     FAIR      83  49  30 S7        30.13F
QUANTICO       FAIR      83  58  42 E3        30.14F
COLLEGE PARK*  FAIR      83  42  23 CALM      30.12F
LEESBURG*      FAIR      82  50  32 S3        30.15F
MANASSAS*      FAIR      84  50  30 VRB6      30.14F
GAITHERSBURG*  FAIR      82  49  31 VRB3      30.15F

$$

MDZ006>007-011-014-242200-
BALTIMORE METRO

CITY           SKY/WX    TMP DP  RH WIND       PRES   REMARKS
BWI AIRPORT    FAIR      84  50  30 W6        30.11F
MD SCIENCE CTR   N/A     85  48  27 MISG      30.12F
MARTIN STATE   SUNNY     82  54  36 SE7       30.14F
ANNAPOLIS      FAIR      81  52  36 SE8       30.13F
FORT MEADE*    FAIR      81  45  28 CALM      30.15F

$$

MDZ012-015-019>023-242200-
MARYLAND EASTERN SHORE

CITY           SKY/WX    TMP DP  RH WIND       PRES   REMARKS
OCEAN CITY     FAIR      72  58  61 E9        30.16S
SALISBURY      FAIR      82  52  35 SE6       30.13S
BAY BRIDGE AP* FAIR      82  46  28 E7        30.13F
CAMBRIDGE*     SUNNY     81  54  39 N8        30.13S

$$

MDZ017>025-242200-
SOUTHERN MARYLAND

CITY           SKY/WX    TMP DP  RH WIND       PRES   REMARKS
PATUXENT RIVER FAIR      84  51  31 NW5       30.14F
ST INIGOES     FAIR      80  59  48 S7        30.13F
LEONARDTOWN*   FAIR      79  43  27 NE5       30.16F

$$

MDZ003>005-242200-
NORTH CENTRAL MARYLAND

CITY           SKY/WX    TMP DP  RH WIND       PRES   REMARKS
FREDERICK*     SUNNY     84  45  24 E5        30.16F
HAGERSTOWN APT FAIR      83  48  29 NW5       30.14F
WESTMINSTER*   FAIR      84  48  28 CALM      30.15F

$$

MDZ501>502-242200-
WESTERN MARYLAND

CITY           SKY/WX    TMP DP  RH WIND       PRES   REMARKS
OAKLAND*       FAIR      72  41  33 S3        30.23F
CUMBERLAND*    FAIR      82  45  26 S6        30.18F

$$

VAZ025>031-242200-
SHENANDOAH VALLEY

CITY           SKY/WX    TMP DP  RH WIND       PRES   REMARKS
WINCHESTER*    FAIR      79  48  34 E6        30.17F
FRONT ROYAL*   FAIR      81  50  34 CALM      30.15F
LURAY*         FAIR      81  37  21 CALM      30.16F
NEW MARKET*    FAIR      80  48  32 NE6       30.13F
STAUNTON*      FAIR      78  51  38 NE5       30.18F
WAYNESBORO*    FAIR      79  51  38 N6        30.18F

$$

WVZ021-048>050-054>055-242200-
EASTERN WEST VIRGINIA PANHANDLE

CITY           SKY/WX    TMP DP  RH WIND       PRES   REMARKS
MARTINSBURG    FAIR      82  49  31 SW5       30.14F
PETERSBURG*    FAIR      80  50  34 CALM      30.15F

$$

VAZ036>039-050-242200-
CENTRAL FOOTHILLS

CITY           SKY/WX    TMP DP  RH WIND       PRES   REMARKS
CHARLOTTESVILL FAIR      84  53  34 N7        30.14F
CULPEPER*      FAIR      83  46  26 CALM      30.15F
ORANGE*        FAIR      81  50  34 N3        30.14F
GORDONSVILLE*  FAIR      82  52  35 CALM      30.14F
WARRENTON*     FAIR      84  39  20 CALM      30.14F

$$

VAZ055>057-242200-
NORTH AND CENTRAL PIEDMONT

CITY           SKY/WX    TMP DP  RH WIND       PRES   REMARKS
FREDERICKSBRG* FAIR      83  52  34 E5        30.13F
STAFFORD*      FAIR      82  53  35 CALM      30.17F

$$

NCZ024-NYZ072-PAZ021-071-VAZ022-071-242200-
OTHER REGIONAL OBSERVATIONS

CITY           SKY/WX    TMP DP  RH WIND       PRES   REMARKS
NEW YORK CITY  FAIR      81  42  25 VRB5      30.10F
PHILADELPHIA   FAIR      83  42  23 SW9       30.10F
PITTSBURGH     FAIR      81  42  25 VRB5      30.16F
ROANOKE        FAIR      80  58  46 E10       30.17F
RICHMOND       PTSUNNY   85  54  34 NE6       30.13F
RALEIGH        FAIR      83  63  50 E10       30.12F

$$

ANZ530>537-242200-
MARINE OBSERVATIONS

STATION/POSITION TIME  TEMP    WIND        PRES
                       AIR SEA DIR/SP/G
                 (UTC) (F)     (DEG/KT/KT) (MB)
THOMAS PT LIGHT  2100   76 71  190/  5/  6 1021.3F
BALT KEY BRIDGE  2048   76     140/  9/ 11 1020.0F
COVE POINT       2048   75     350/  6/  7 1021.3F
LEWISETTA        2048   78 75  100/  3/  3 1020.7F
SOLOMONS ISLAND  2048   80 71  280/  4/  6 1020.3F
PINEY POINT      2048          220/  4/  5   N/A

$$





USA.gov is the U.S. government's official web portal to all federal, state and local government web resources and services.